Погода в Муроме

Россия / Владимирская область     55°34′45″N   42°03′08″E
темп.,
°C
ветер,
м/с
пор.,
м/с
влажн.,
%
обл.,
%
осадки,
мм/ч
давл.,
гПа
погр.,
м
7 марта, вс
вс700:00−13зюз239668 0.0 101321
03:00−14юз349543 0.0 101252
06:00−14ююз499332 0.0 1009151
09:00−10ююз7138766 0.0 1005471
12:00−7ююз91492100 0.3 1001922
15:00−4ююз91593100 1.3 9961198
18:00−4ююз81493100 1.0 993861
21:00−7ссз4982100 1.9 993264
8 марта, пн
пн800:00−11зюз3483100 0.0 99460
03:00−9зюз41191100 0.0 996296
06:00−10зюз4109385 0.0 996253
09:00−8юз499377 0.0 996452
12:00−5юз4684100 0.3 996856
15:00−5сз7986100 1.4 997909
18:00−9зсз498461 0.1 1000157
21:00−12зсз479331 0.1 100494
9 марта, вт
вт900:00−14сз479551 0.0 1006138
03:00−16сз369751 0.0 100896
06:00−18сз359771 0.0 101194
09:00−17ссз479366 0.0 1013318
12:00−14сз468888 0.0 1014533
15:00−12сз468694 0.1 1015668
18:00−17сз479294 0.0 1016138
21:00−20сз369777 0.0 101899
10 марта, ср
ср1000:00−22сз359888 0.0 101987
03:00−25сз359868 0.0 102183
06:00−26сз349732 0.0 102271
09:00−24ссз479430 0.0 1024274
12:00−19ссз458665 0.0 1025513
15:00−17ссз468279 0.0 1025635
18:00−20зсз338811 0.0 102522
21:00−22зсз33906 0.0 102629
11 марта, чт
чт1100:00−23з33860 0.0 102624
03:00−23з338515 0.0 102725
06:00−23зюз238593 0.0 102722
09:00−19юз248590 0.0 1027143
12:00−13ю358017 0.0 1026325
15:00−10ю58749 0.0 1024551
18:00−12ю4118963 0.0 1022365
21:00−11ю6129482 0.4 1021462